User: anonymous   Login
Location: Lafig�re
(44.4503°N, 4.0357°E)
Time: 02:35:24
(UTC+00:00)
Language:

CZ-4 R/B - Orbit

View from above orbital plane
View from above orbital plane
View from above satellite
View from above satellite

Ground track
Ground track

The orbit data is extracted from the following two-line orbital elements,

1 29507U 06046C   20339.79523767  .00000516  00000-0  44908-4 0  9993
2 29507  97.7197   0.9364 0046999 315.2002  44.5431 15.00586662770966
Epoch (UTC): 04 December 2020 19:05:08
Eccentricity: 0.0046999
inclination: 97.7197°
perigee height: 532 km
apogee height: 598 km
right ascension of ascending node: 0.9364°
argument of perigee: 315.2002°
revolutions per day: 15.00586662
mean anomaly at epoch: 44.5431°
orbit number at epoch: 77096

The dashed part of the orbit path shows where the satellite is in the earth's shadow,  

DLR